Location: Unspecified
(0.0000°N, 0.0000°E)
Time: 14:06:15
(UTC+00:00)

Amsat-Oscar-6 - Pass Details

Date: 17 June 2019
Orbit: 1448 x 1454 km, 101.8° (Epoch: 16 August)

Event Time Altitude Azimuth Distance (km) Brightness Sun altitude
Rises 02:42:39 0° 27° (NNE) 4,542 ? -44.3°
Reaches altitude 10° 02:45:32 10° 32° (NNE) 3,566 ? -43.7°
Enters shadow 02:53:01 51° 94° (E) 1,764 ? -42.1°
